Location: Unspecified
(57.6483°N, 3.3184°W)
Time: 09:38:11
(UTC+00:00)

ARIANE 6 FM1 Upper Stage - Visible Passes

Search period start: 20 January 2026 00:00
Search period end: 30 January 2026 00:00
Orbit: 522 x 610 km, 62.0° (Epoch: 19 January)

Date Brightness Start Highest point End Pass type
(mag) Time Alt. Az. Time Alt. Az. Time Alt. Az.
22 Jan 5.0 19:14:05 10° S 19:14:41 13° S 19:14:41 13° S visible
23 Jan 4.4 19:13:49 10° SSW 19:15:28 20° S 19:15:28 20° S visible
24 Jan 3.8 19:13:41 10° SSW 19:16:08 30° S 19:16:08 30° S visible
25 Jan 4.6 17:37:37 10° SE 17:39:19 12° ESE 17:40:42 11° E visible
25 Jan 3.2 19:13:37 10° SW 19:16:44 43° S 19:16:44 43° S visible
25 Jan 5.8 20:52:38 10° W 20:52:46 11° W 20:52:46 11° W visible
26 Jan 4.4 17:36:41 10° SSE 17:39:14 16° ESE 17:41:13 12° E visible
26 Jan 2.7 19:13:38 10° SW 19:17:14 60° S 19:17:14 60° S visible
26 Jan 5.7 20:52:53 10° W 20:53:17 12° W 20:53:17 12° W visible
27 Jan 4.1 17:36:07 10° S 17:39:12 21° SE 17:41:39 13° E visible
27 Jan 2.4 19:13:43 10° SW 19:17:41 80° SSE 19:17:41 80° SSE visible
27 Jan 5.6 20:53:08 10° W 20:53:43 14° W 20:53:43 14° W visible
28 Jan 3.8 17:35:44 10° S 17:39:10 27° SE 17:42:02 13° ENE visible
28 Jan 2.4 19:13:51 10° WSW 19:17:53 84° NNW 19:18:04 80° NNE visible
28 Jan 5.6 20:53:23 10° W 20:54:05 14° WNW 20:54:05 14° WNW visible
29 Jan 3.4 17:35:29 10° SSW 17:39:11 35° SE 17:42:22 13° ENE visible
29 Jan 2.6 19:14:00 10° WSW 19:18:01 71° NNW 19:18:23 66° NNE visible
29 Jan 5.5 20:53:37 10° WNW 20:54:24 15° WNW 20:54:24 15° WNW visible
